Time,TemperatureF,DewpointF,PressureIn,WindDirection,WindDirectionDegrees,WindSpeedMPH,WindSpeedGustMPH,Humidity,HourlyPrecipIn,Conditions,Clouds,dailyrainin,SoftwareType,DateUTC
2013-06-12 00:02:00,64.7,52.7,29.85,SSW,194,3.0,3.0,65,0.00,,,0.00,Wunderground v.1.15,2013-06-12 07:02:00,
2013-06-12 00:07:00,64.7,52.7,29.85,SSW,194,2.0,4.0,65,0.00,,,0.00,Wunderground v.1.15,2013-06-12 07:07:00,
2013-06-12 00:12:00,64.6,52.6,29.85,SSW,194,1.0,3.0,65,0.00,,,0.00,Wunderground v.1.15,2013-06-12 07:12:00,
2013-06-12 00:17:00,64.5,52.9,29.85,SSW,194,3.0,4.0,66,0.00,,,0.00,Wunderground v.1.15,2013-06-12 07:17:00,
2013-06-12 00:22:00,64.4,53.2,29.85,SSW,194,1.0,4.0,67,0.00,,,0.00,Wunderground v.1.15,2013-06-12 07:22:00,
2013-06-12 00:27:00,64.4,53.2,29.85,SSW,204,1.0,5.0,67,0.00,,,0.00,Wunderground v.1.15,2013-06-12 07:27:00,
2013-06-12 00:32:00,64.3,53.5,29.86,SSW,204,1.0,4.0,68,0.00,,,0.00,Wunderground v.1.15,2013-06-12 07:32:00,
2013-06-12 00:37:00,64.2,53.4,29.85,SSW,200,4.0,5.0,68,0.00,,,0.00,Wunderground v.1.15,2013-06-12 07:37:00,
2013-06-12 00:42:00,64.0,53.6,29.86,SSW,192,5.0,6.0,69,0.00,,,0.00,Wunderground v.1.15,2013-06-12 07:42:00,
2013-06-12 00:47:00,63.7,53.3,29.86,South,178,4.0,6.0,69,0.00,,,0.00,Wunderground v.1.15,2013-06-12 07:47:00,
2013-06-12 00:52:00,63.3,53.3,29.86,South,186,5.0,7.0,70,0.00,,,0.00,Wunderground v.1.15,2013-06-12 07:52:00,
2013-06-12 00:57:00,62.9,53.0,29.86,SSW,195,5.0,7.0,70,0.00,,,0.00,Wunderground v.1.15,2013-06-12 07:57:00,
2013-06-12 01:02:00,62.6,53.1,29.86,South,186,4.0,7.0,71,0.00,,,0.00,Wunderground v.1.15,2013-06-12 08:02:00,
2013-06-12 01:07:00,62.3,52.8,29.86,South,180,4.0,8.0,71,0.00,,,0.00,Wunderground v.1.15,2013-06-12 08:07:00,
2013-06-12 01:12:00,62.2,53.1,29.86,SSW,194,4.0,6.0,72,0.00,,,0.00,Wunderground v.1.15,2013-06-12 08:12:00,
2013-06-12 01:17:00,62.0,52.9,29.86,South,186,5.0,7.0,72,0.00,,,0.00,Wunderground v.1.15,2013-06-12 08:17:00,
2013-06-12 01:22:00,61.9,52.8,29.86,SSW,198,5.0,7.0,72,0.00,,,0.00,Wunderground v.1.15,2013-06-12 08:22:00,
2013-06-12 01:27:00,61.8,52.7,29.86,SSW,199,5.0,8.0,72,0.00,,,0.00,Wunderground v.1.15,2013-06-12 08:27:00,
2013-06-12 01:32:00,61.8,53.1,29.86,SW,220,2.0,10.0,73,0.00,,,0.00,Wunderground v.1.15,2013-06-12 08:32:00,
2013-06-12 01:37:00,61.7,53.0,29.86,SSW,197,5.0,10.0,73,0.00,,,0.00,Wunderground v.1.15,2013-06-12 08:37:00,
2013-06-12 01:42:00,61.6,53.2,29.86,South,190,4.0,9.0,74,0.00,,,0.00,Wunderground v.1.15,2013-06-12 08:42:00,
2013-06-12 01:47:00,61.5,53.1,29.86,South,186,4.0,9.0,74,0.00,,,0.00,Wunderground v.1.15,2013-06-12 08:47:00,
2013-06-12 01:52:00,61.5,53.1,29.86,South,190,3.0,6.0,74,0.00,,,0.00,Wunderground v.1.15,2013-06-12 08:52:00,
2013-06-12 01:57:00,61.4,53.0,29.86,SSW,193,3.0,7.0,74,0.00,,,0.00,Wunderground v.1.15,2013-06-12 08:57:00,
2013-06-12 02:02:00,61.4,52.7,29.86,SSW,195,4.0,7.0,73,0.00,,,0.00,Wunderground v.1.15,2013-06-12 09:02:00,
2013-06-12 02:07:00,61.4,52.7,29.86,SSW,205,4.0,7.0,73,0.00,,,0.00,Wunderground v.1.15,2013-06-12 09:07:00,
2013-06-12 02:12:00,61.4,52.3,29.86,SSW,200,1.0,6.0,72,0.00,,,0.00,Wunderground v.1.15,2013-06-12 09:12:00,
2013-06-12 02:17:00,61.5,52.4,29.86,SSW,205,2.0,7.0,72,0.00,,,0.00,Wunderground v.1.15,2013-06-12 09:17:00,
2013-06-12 02:22:00,61.6,52.1,29.86,SSW,205,4.0,6.0,71,0.00,,,0.00,Wunderground v.1.15,2013-06-12 09:22:00,
2013-06-12 02:27:00,61.6,52.1,29.86,SSW,202,3.0,7.0,71,0.00,,,0.00,Wunderground v.1.15,2013-06-12 09:27:00,
2013-06-12 02:32:00,61.6,51.7,29.86,SSW,203,2.0,5.0,70,0.00,,,0.00,Wunderground v.1.15,2013-06-12 09:32:00,
2013-06-12 02:37:00,61.6,51.7,29.86,SSW,203,5.0,6.0,70,0.00,,,0.00,Wunderground v.1.15,2013-06-12 09:37:00,
2013-06-12 02:42:00,61.5,51.6,29.86,SSW,202,4.0,5.0,70,0.00,,,0.00,Wunderground v.1.15,2013-06-12 09:42:00,
2013-06-12 02:47:00,61.4,51.5,29.86,SSW,202,2.0,6.0,70,0.00,,,0.00,Wunderground v.1.15,2013-06-12 09:47:00,
2013-06-12 02:52:00,61.4,51.5,29.86,SSW,202,2.0,4.0,70,0.00,,,0.00,Wunderground v.1.15,2013-06-12 09:52:00,
2013-06-12 02:57:00,61.3,51.8,29.85,SSW,201,2.0,6.0,71,0.00,,,0.00,Wunderground v.1.15,2013-06-12 09:57:00,
2013-06-12 03:02:00,61.1,51.6,29.86,SSW,199,3.0,6.0,71,0.00,,,0.00,Wunderground v.1.15,2013-06-12 10:02:00,
2013-06-12 03:07:00,60.9,51.4,29.85,South,190,2.0,6.0,71,0.00,,,0.00,Wunderground v.1.15,2013-06-12 10:07:00,
2013-06-12 03:12:00,60.8,51.3,29.86,SSW,193,1.0,4.0,71,0.00,,,0.00,Wunderground v.1.15,2013-06-12 10:12:00,
2013-06-12 03:17:00,60.7,51.2,29.86,SSW,196,4.0,5.0,71,0.00,,,0.00,Wunderground v.1.15,2013-06-12 10:17:00,
2013-06-12 03:22:00,60.5,51.4,29.86,SSW,196,1.0,5.0,72,0.00,,,0.00,Wunderground v.1.15,2013-06-12 10:22:00,
2013-06-12 03:27:00,60.4,51.3,29.85,SSW,196,2.0,5.0,72,0.00,,,0.00,Wunderground v.1.15,2013-06-12 10:27:00,
2013-06-12 03:32:00,60.3,51.2,29.85,SSW,196,2.0,4.0,72,0.00,,,0.00,Wunderground v.1.15,2013-06-12 10:32:00,
2013-06-12 03:37:00,60.2,51.1,29.85,South,190,2.0,6.0,72,0.00,,,0.00,Wunderground v.1.15,2013-06-12 10:37:00,
2013-06-12 03:42:00,60.0,51.3,29.85,SSW,200,2.0,4.0,73,0.00,,,0.00,Wunderground v.1.15,2013-06-12 10:42:00,
2013-06-12 03:47:00,59.8,51.1,29.85,SSW,196,3.0,7.0,73,0.00,,,0.00,Wunderground v.1.15,2013-06-12 10:47:00,
2013-06-12 03:52:00,59.7,51.4,29.85,SSW,192,4.0,6.0,74,0.00,,,0.00,Wunderground v.1.15,2013-06-12 10:52:00,
2013-06-12 03:57:00,59.6,51.3,29.85,SSW,195,3.0,6.0,74,0.00,,,0.00,Wunderground v.1.15,2013-06-12 10:57:00,
2013-06-12 04:02:00,59.4,51.1,29.85,SSW,196,2.0,5.0,74,0.00,,,0.00,Wunderground v.1.15,2013-06-12 11:02:00,
2013-06-12 04:07:00,59.3,51.0,29.85,SSW,196,5.0,5.0,74,0.00,,,0.00,Wunderground v.1.15,2013-06-12 11:07:00,
2013-06-12 04:12:00,59.2,50.9,29.85,SSW,196,2.0,5.0,74,0.00,,,0.00,Wunderground v.1.15,2013-06-12 11:12:00,
2013-06-12 04:17:00,59.1,50.8,29.85,SSW,207,3.0,6.0,74,0.00,,,0.00,Wunderground v.1.15,2013-06-12 11:17:00,
2013-06-12 04:22:00,59.0,50.7,29.85,SSW,207,5.0,6.0,74,0.00,,,0.00,Wunderground v.1.15,2013-06-12 11:22:00,
2013-06-12 04:27:00,59.0,50.7,29.85,SSW,202,4.0,6.0,74,0.00,,,0.00,Wunderground v.1.15,2013-06-12 11:27:00,
2013-06-12 04:32:00,58.9,50.6,29.86,SSW,202,1.0,4.0,74,0.00,,,0.00,Wunderground v.1.15,2013-06-12 11:32:00,
2013-06-12 04:37:00,58.9,50.6,29.86,SSW,202,3.0,4.0,74,0.00,,,0.00,Wunderground v.1.15,2013-06-12 11:37:00,
2013-06-12 04:42:00,58.8,50.5,29.86,SSW,202,1.0,3.0,74,0.00,,,0.00,Wunderground v.1.15,2013-06-12 11:42:00,
2013-06-12 04:47:00,58.8,50.5,29.86,SSW,202,2.0,3.0,74,0.00,,,0.00,Wunderground v.1.15,2013-06-12 11:47:00,
2013-06-12 04:52:00,58.7,50.4,29.86,SSW,202,3.0,4.0,74,0.00,,,0.00,Wunderground v.1.15,2013-06-12 11:52:00,
2013-06-12 04:57:00,58.7,50.4,29.87,SSW,202,2.0,4.0,74,0.00,,,0.00,Wunderground v.1.15,2013-06-12 11:57:00,
2013-06-12 05:02:00,58.7,50.4,29.87,SSW,202,0.0,3.0,74,0.00,,,0.00,Wunderground v.1.15,2013-06-12 12:02:00,
2013-06-12 05:07:00,58.6,50.3,29.87,SSW,202,0.0,3.0,74,0.00,,,0.00,Wunderground v.1.15,2013-06-12 12:07:00,
2013-06-12 05:12:00,58.6,50.3,29.87,SSW,202,0.0,0.0,74,0.00,,,0.00,Wunderground v.1.15,2013-06-12 12:12:00,
2013-06-12 05:17:00,58.5,50.6,29.88,SSW,202,0.0,0.0,75,0.00,,,0.00,Wunderground v.1.15,2013-06-12 12:17:00,
2013-06-12 05:22:00,58.4,50.5,29.88,SSW,202,0.0,0.0,75,0.00,,,0.00,Wunderground v.1.15,2013-06-12 12:22:00,
2013-06-12 05:27:00,58.3,50.4,29.88,SSW,202,1.0,1.0,75,0.00,,,0.00,Wunderground v.1.15,2013-06-12 12:27:00,
2013-06-12 05:32:00,58.1,50.2,29.88,SSW,202,0.0,2.0,75,0.00,,,0.00,Wunderground v.1.15,2013-06-12 12:32:00,
2013-06-12 05:37:00,57.9,50.4,29.88,SSW,202,0.0,2.0,76,0.00,,,0.00,Wunderground v.1.15,2013-06-12 12:37:00,
2013-06-12 05:42:00,57.8,50.3,29.88,SSW,202,0.0,1.0,76,0.00,,,0.00,Wunderground v.1.15,2013-06-12 12:42:00,
2013-06-12 05:47:00,57.7,50.5,29.88,SSW,202,1.0,2.0,77,0.00,,,0.00,Wunderground v.1.15,2013-06-12 12:47:00,
2013-06-12 05:51:00,57.5,50.0,29.88,SSW,202,1.0,3.0,76,0.00,,,0.00,Wunderground v.1.15,2013-06-12 12:51:00,
2013-06-12 05:56:00,57.2,49.7,29.89,SSW,202,2.0,3.0,76,0.00,,,0.00,Wunderground v.1.15,2013-06-12 12:56:00,
2013-06-12 06:01:00,57.1,50.0,29.89,SSW,202,2.0,2.0,77,0.00,,,0.00,Wunderground v.1.15,2013-06-12 13:01:00,
2013-06-12 06:06:00,56.9,49.8,29.89,SSW,202,2.0,3.0,77,0.00,,,0.00,Wunderground v.1.15,2013-06-12 13:06:00,
2013-06-12 06:11:00,56.8,49.7,29.89,SSW,202,0.0,2.0,77,0.00,,,0.00,Wunderground v.1.15,2013-06-12 13:11:00,
2013-06-12 06:16:00,56.7,49.6,29.89,SSW,202,2.0,3.0,77,0.00,,,0.00,Wunderground v.1.15,2013-06-12 13:16:00,
2013-06-12 06:21:00,56.6,49.1,29.90,SSW,202,2.0,4.0,76,0.00,,,0.00,Wunderground v.1.15,2013-06-12 13:21:00,
2013-06-12 06:26:00,56.5,48.7,29.90,SSW,202,2.0,4.0,75,0.00,,,0.00,Wunderground v.1.15,2013-06-12 13:26:00,
2013-06-12 06:31:00,56.5,48.7,29.90,SSW,198,4.0,5.0,75,0.00,,,0.00,Wunderground v.1.15,2013-06-12 13:31:00,
2013-06-12 06:36:00,56.5,48.7,29.90,South,190,3.0,7.0,75,0.00,,,0.00,Wunderground v.1.15,2013-06-12 13:36:00,
2013-06-12 06:41:00,56.6,48.4,29.90,South,188,2.0,6.0,74,0.00,,,0.00,Wunderground v.1.15,2013-06-12 13:41:00,
2013-06-12 06:46:00,56.7,48.5,29.90,South,188,2.0,6.0,74,0.00,,,0.00,Wunderground v.1.15,2013-06-12 13:46:00,
2013-06-12 06:51:00,56.9,48.7,29.90,SSW,198,4.0,7.0,74,0.00,,,0.00,Wunderground v.1.15,2013-06-12 13:51:00,
2013-06-12 06:56:00,57.3,49.1,29.90,SSW,200,5.0,7.0,74,0.00,,,0.00,Wunderground v.1.15,2013-06-12 13:56:00,
2013-06-12 07:01:00,57.6,49.0,29.91,South,184,4.0,5.0,73,0.00,,,0.00,Wunderground v.1.15,2013-06-12 14:01:00,
2013-06-12 07:06:00,58.0,49.4,29.90,SSW,192,2.0,7.0,73,0.00,,,0.00,Wunderground v.1.15,2013-06-12 14:06:00,
2013-06-12 07:11:00,58.5,49.5,29.90,SSW,198,3.0,7.0,72,0.00,,,0.00,Wunderground v.1.15,2013-06-12 14:11:00,
2013-06-12 07:16:00,58.9,49.5,29.91,South,186,4.0,7.0,71,0.00,,,0.00,Wunderground v.1.15,2013-06-12 14:16:00,
2013-06-12 07:21:00,59.4,49.6,29.91,South,190,3.0,6.0,70,0.00,,,0.00,Wunderground v.1.15,2013-06-12 14:21:00,
2013-06-12 07:26:00,59.9,50.1,29.91,South,191,4.0,6.0,70,0.00,,,0.00,Wunderground v.1.15,2013-06-12 14:26:00,
2013-06-12 07:31:00,60.5,49.9,29.91,SSW,196,2.0,5.0,68,0.00,,,0.00,Wunderground v.1.15,2013-06-12 14:31:00,
2013-06-12 07:36:00,60.9,49.9,29.91,SSW,196,1.0,7.0,67,0.00,,,0.00,Wunderground v.1.15,2013-06-12 14:36:00,
2013-06-12 07:41:00,61.5,50.0,29.91,South,190,5.0,5.0,66,0.00,,,0.00,Wunderground v.1.15,2013-06-12 14:41:00,
2013-06-12 07:46:00,62.0,50.5,29.91,SSW,192,4.0,8.0,66,0.00,,,0.00,Wunderground v.1.15,2013-06-12 14:46:00,
2013-06-12 07:51:00,62.5,50.2,29.91,South,177,4.0,8.0,64,0.00,,,0.00,Wunderground v.1.15,2013-06-12 14:51:00,
2013-06-12 07:56:00,63.0,50.6,29.91,SSW,207,5.0,8.0,64,0.00,,,0.00,Wunderground v.1.15,2013-06-12 14:56:00,
2013-06-12 08:01:00,63.4,50.6,29.91,South,191,5.0,6.0,63,0.00,,,0.00,Wunderground v.1.15,2013-06-12 15:01:00,
2013-06-12 08:06:00,64.0,50.7,29.91,South,184,5.0,8.0,62,0.00,,,0.00,Wunderground v.1.15,2013-06-12 15:06:00,
2013-06-12 08:11:00,64.5,50.7,29.91,South,181,3.0,9.0,61,0.00,,,0.00,Wunderground v.1.15,2013-06-12 15:11:00,
2013-06-12 08:16:00,64.9,50.7,29.92,SSE,165,3.0,10.0,60,0.00,,,0.00,Wunderground v.1.15,2013-06-12 15:16:00,
2013-06-12 08:21:00,65.2,51.0,29.92,SSW,204,7.0,8.0,60,0.00,,,0.00,Wunderground v.1.15,2013-06-12 15:21:00,
2013-06-12 08:26:00,65.5,51.2,29.92,South,190,5.0,9.0,60,0.00,,,0.00,Wunderground v.1.15,2013-06-12 15:26:00,
2013-06-12 08:31:00,65.8,51.1,29.92,SSW,198,4.0,7.0,59,0.00,,,0.00,Wunderground v.1.15,2013-06-12 15:31:00,
2013-06-12 08:36:00,66.1,51.4,29.92,SSW,211,4.0,7.0,59,0.00,,,0.00,Wunderground v.1.15,2013-06-12 15:36:00,
2013-06-12 08:41:00,66.4,51.2,29.92,SSW,200,2.0,5.0,58,0.00,,,0.00,Wunderground v.1.15,2013-06-12 15:41:00,
2013-06-12 08:46:00,66.9,51.6,29.92,SSW,200,4.0,6.0,58,0.00,,,0.00,Wunderground v.1.15,2013-06-12 15:46:00,
2013-06-12 08:51:00,67.5,51.2,29.92,SSW,198,3.0,5.0,56,0.00,,,0.00,Wunderground v.1.15,2013-06-12 15:51:00,
2013-06-12 08:56:00,68.0,51.7,29.92,SSW,208,2.0,6.0,56,0.00,,,0.00,Wunderground v.1.15,2013-06-12 15:56:00,
2013-06-12 09:01:00,68.6,51.8,29.92,South,178,4.0,6.0,55,0.00,,,0.00,Wunderground v.1.15,2013-06-12 16:01:00,
2013-06-12 09:06:00,69.1,51.8,29.92,SSW,213,6.0,7.0,54,0.00,,,0.00,Wunderground v.1.15,2013-06-12 16:06:00,
2013-06-12 09:11:00,69.5,51.6,29.92,South,178,5.0,6.0,53,0.00,,,0.00,Wunderground v.1.15,2013-06-12 16:11:00,
2013-06-12 09:16:00,69.9,51.5,29.93,SSW,195,4.0,7.0,52,0.00,,,0.00,Wunderground v.1.15,2013-06-12 16:16:00,
2013-06-12 09:21:00,70.3,51.8,29.92,South,170,2.0,7.0,52,0.00,,,0.00,Wunderground v.1.15,2013-06-12 16:21:00,
2013-06-12 09:26:00,70.7,51.7,29.93,SSW,204,5.0,8.0,51,0.00,,,0.00,Wunderground v.1.15,2013-06-12 16:26:00,
2013-06-12 09:31:00,70.9,51.3,29.92,SSW,202,5.0,6.0,50,0.00,,,0.00,Wunderground v.1.15,2013-06-12 16:31:00,
2013-06-12 09:36:00,71.3,51.7,29.93,SSE,167,3.0,9.0,50,0.00,,,0.00,Wunderground v.1.15,2013-06-12 16:36:00,
2013-06-12 09:41:00,71.7,51.5,29.93,South,172,3.0,7.0,49,0.00,,,0.00,Wunderground v.1.15,2013-06-12 16:41:00,
2013-06-12 09:46:00,72.1,51.3,29.93,South,169,6.0,10.0,48,0.00,,,0.00,Wunderground v.1.15,2013-06-12 16:46:00,
2013-06-12 09:51:00,72.5,51.7,29.93,South,189,3.0,6.0,48,0.00,,,0.00,Wunderground v.1.15,2013-06-12 16:51:00,
2013-06-12 09:56:00,73.0,51.6,29.93,SSE,157,2.0,9.0,47,0.00,,,0.00,Wunderground v.1.15,2013-06-12 16:56:00,
2013-06-12 10:01:00,73.6,52.1,29.93,South,178,4.0,6.0,47,0.00,,,0.00,Wunderground v.1.15,2013-06-12 17:01:00,
2013-06-12 10:06:00,74.1,52.0,29.93,South,182,2.0,11.0,46,0.00,,,0.00,Wunderground v.1.15,2013-06-12 17:06:00,
2013-06-12 10:11:00,74.5,52.4,29.93,South,186,2.0,5.0,46,0.00,,,0.00,Wunderground v.1.15,2013-06-12 17:11:00,
2013-06-12 10:16:00,74.8,51.4,29.93,SSW,197,7.0,8.0,44,0.00,,,0.00,Wunderground v.1.15,2013-06-12 17:16:00,
2013-06-12 10:21:00,75.1,51.7,29.93,South,189,3.0,7.0,44,0.00,,,0.00,Wunderground v.1.15,2013-06-12 17:21:00,
2013-06-12 10:26:00,75.4,51.3,29.93,South,180,6.0,7.0,43,0.00,,,0.00,Wunderground v.1.15,2013-06-12 17:26:00,
2013-06-12 10:31:00,75.2,50.5,29.94,SSW,201,4.0,8.0,42,0.00,,,0.00,Wunderground v.1.15,2013-06-12 17:31:00,
2013-06-12 10:36:00,75.1,51.1,29.93,SSW,194,3.0,8.0,43,0.00,,,0.00,Wunderground v.1.15,2013-06-12 17:36:00,
2013-06-12 10:41:00,75.1,50.4,29.93,SSW,207,5.0,6.0,42,0.00,,,0.00,Wunderground v.1.15,2013-06-12 17:41:00,
2013-06-12 10:46:00,75.0,51.0,29.93,SSW,203,3.0,9.0,43,0.00,,,0.00,Wunderground v.1.15,2013-06-12 17:46:00,
2013-06-12 10:51:00,75.4,51.3,29.93,South,181,3.0,5.0,43,0.00,,,0.00,Wunderground v.1.15,2013-06-12 17:51:00,
2013-06-12 10:56:00,75.9,50.5,29.93,South,170,4.0,7.0,41,0.00,,,0.00,Wunderground v.1.15,2013-06-12 17:56:00,
2013-06-12 11:01:00,76.2,50.8,29.93,SSW,194,5.0,7.0,41,0.00,,,0.00,Wunderground v.1.15,2013-06-12 18:01:00,
2013-06-12 11:06:00,76.4,51.0,29.94,SSW,211,3.0,9.0,41,0.00,,,0.00,Wunderground v.1.15,2013-06-12 18:06:00,
2013-06-12 11:11:00,76.6,51.8,29.94,South,186,6.0,6.0,42,0.00,,,0.00,Wunderground v.1.15,2013-06-12 18:11:00,
2013-06-12 11:16:00,76.9,50.7,29.94,South,182,3.0,9.0,40,0.00,,,0.00,Wunderground v.1.15,2013-06-12 18:16:00,
2013-06-12 11:21:00,77.1,50.9,29.94,South,190,3.0,10.0,40,0.00,,,0.00,Wunderground v.1.15,2013-06-12 18:21:00,
2013-06-12 11:26:00,77.3,51.1,29.94,SSW,200,4.0,10.0,40,0.00,,,0.00,Wunderground v.1.15,2013-06-12 18:26:00,
2013-06-12 11:31:00,77.5,51.9,29.94,South,171,3.0,6.0,41,0.00,,,0.00,Wunderground v.1.15,2013-06-12 18:31:00,
2013-06-12 11:36:00,78.1,51.8,29.94,SSE,147,4.0,7.0,40,0.00,,,0.00,Wunderground v.1.15,2013-06-12 18:36:00,
2013-06-12 11:41:00,78.5,52.2,29.93,South,180,6.0,7.0,40,0.00,,,0.00,Wunderground v.1.15,2013-06-12 18:41:00,
2013-06-12 11:46:00,78.9,52.5,29.93,South,171,5.0,7.0,40,0.00,,,0.00,Wunderground v.1.15,2013-06-12 18:46:00,
2013-06-12 11:51:00,79.3,52.2,29.93,South,173,5.0,7.0,39,0.00,,,0.00,Wunderground v.1.15,2013-06-12 18:51:00,
2013-06-12 11:56:00,79.8,51.9,29.93,SSW,198,3.0,8.0,38,0.00,,,0.00,Wunderground v.1.15,2013-06-12 18:56:00,
2013-06-12 12:01:00,79.8,51.9,29.93,SW,226,2.0,6.0,38,0.00,,,0.00,Wunderground v.1.15,2013-06-12 19:01:00,
2013-06-12 12:06:00,79.8,51.9,29.93,SSW,193,1.0,8.0,38,0.00,,,0.00,Wunderground v.1.15,2013-06-12 19:06:00,
2013-06-12 12:11:00,80.4,52.5,29.93,SSW,198,7.0,9.0,38,0.00,,,0.00,Wunderground v.1.15,2013-06-12 19:11:00,
2013-06-12 12:16:00,80.7,52.0,29.92,South,186,4.0,9.0,37,0.00,,,0.00,Wunderground v.1.15,2013-06-12 19:16:00,
2013-06-12 12:21:00,80.9,52.2,29.92,South,175,6.0,6.0,37,0.00,,,0.00,Wunderground v.1.15,2013-06-12 19:21:00,
2013-06-12 12:26:00,81.2,51.7,29.92,WSW,245,5.0,9.0,36,0.00,,,0.00,Wunderground v.1.15,2013-06-12 19:26:00,
2013-06-12 12:31:00,80.9,51.4,29.92,South,186,3.0,8.0,36,0.00,,,0.00,Wunderground v.1.15,2013-06-12 19:31:00,
2013-06-12 12:36:00,81.0,51.5,29.92,South,185,7.0,11.0,36,0.00,,,0.00,Wunderground v.1.15,2013-06-12 19:36:00,
2013-06-12 12:41:00,81.0,51.5,29.92,SSW,197,4.0,8.0,36,0.00,,,0.00,Wunderground v.1.15,2013-06-12 19:41:00,
2013-06-12 12:46:00,80.9,51.4,29.92,South,188,6.0,10.0,36,0.00,,,0.00,Wunderground v.1.15,2013-06-12 19:46:00,
2013-06-12 12:51:00,81.0,51.5,29.92,SSW,202,4.0,8.0,36,0.00,,,0.00,Wunderground v.1.15,2013-06-12 19:51:00,
2013-06-12 12:56:00,81.3,51.8,29.92,SSW,201,5.0,11.0,36,0.00,,,0.00,Wunderground v.1.15,2013-06-12 19:56:00,
2013-06-12 13:01:00,81.6,52.1,29.91,SSE,155,6.0,10.0,36,0.00,,,0.00,Wunderground v.1.15,2013-06-12 20:01:00,
2013-06-12 13:06:00,82.2,51.8,29.91,SW,219,5.0,11.0,35,0.00,,,0.00,Wunderground v.1.15,2013-06-12 20:06:00,
2013-06-12 13:11:00,82.1,50.9,29.91,SSE,167,10.0,12.0,34,0.00,,,0.00,Wunderground v.1.15,2013-06-12 20:11:00,
2013-06-12 13:16:00,82.1,50.9,29.91,South,186,8.0,12.0,34,0.00,,,0.00,Wunderground v.1.15,2013-06-12 20:16:00,
2013-06-12 13:21:00,82.2,51.0,29.91,SSW,205,7.0,9.0,34,0.00,,,0.00,Wunderground v.1.15,2013-06-12 20:21:00,
2013-06-12 13:26:00,82.3,50.3,29.91,South,182,2.0,10.0,33,0.00,,,0.00,Wunderground v.1.15,2013-06-12 20:26:00,
2013-06-12 13:31:00,82.5,50.5,29.91,SSE,167,8.0,11.0,33,0.00,,,0.00,Wunderground v.1.15,2013-06-12 20:31:00,
2013-06-12 13:36:00,82.5,51.3,29.91,SSW,198,2.0,16.0,34,0.00,,,0.00,Wunderground v.1.15,2013-06-12 20:36:00,
2013-06-12 13:41:00,82.8,50.8,29.91,SSE,157,8.0,10.0,33,0.00,,,0.00,Wunderground v.1.15,2013-06-12 20:41:00,
2013-06-12 13:46:00,83.2,51.9,29.90,SSW,192,8.0,12.0,34,0.00,,,0.00,Wunderground v.1.15,2013-06-12 20:46:00,
2013-06-12 13:51:00,83.5,51.4,29.90,South,180,5.0,13.0,33,0.00,,,0.00,Wunderground v.1.15,2013-06-12 20:51:00,
2013-06-12 13:56:00,83.6,52.3,29.90,SW,223,4.0,13.0,34,0.00,,,0.00,Wunderground v.1.15,2013-06-12 20:56:00,
2013-06-12 14:01:00,83.7,51.5,29.90,SSW,198,8.0,11.0,33,0.00,,,0.00,Wunderground v.1.15,2013-06-12 21:01:00,
2013-06-12 14:06:00,83.8,51.6,29.90,SW,216,10.0,13.0,33,0.00,,,0.00,Wunderground v.1.15,2013-06-12 21:06:00,
2013-06-12 14:11:00,84.4,53.0,29.89,South,169,9.0,16.0,34,0.00,,,0.00,Wunderground v.1.15,2013-06-12 21:11:00,
2013-06-12 14:16:00,84.6,53.1,29.89,SSW,209,6.0,16.0,34,0.00,,,0.00,Wunderground v.1.15,2013-06-12 21:16:00,
2013-06-12 14:21:00,84.8,52.5,29.89,South,171,8.0,17.0,33,0.00,,,0.00,Wunderground v.1.15,2013-06-12 21:21:00,
2013-06-12 14:26:00,84.6,52.3,29.89,SSW,205,6.0,17.0,33,0.00,,,0.00,Wunderground v.1.15,2013-06-12 21:26:00,
2013-06-12 14:31:00,84.5,52.2,29.89,SSE,163,18.0,18.0,33,0.00,,,0.00,Wunderground v.1.15,2013-06-12 21:31:00,
2013-06-12 14:36:00,84.7,52.4,29.89,SSW,205,4.0,18.0,33,0.00,,,0.00,Wunderground v.1.15,2013-06-12 21:36:00,
2013-06-12 14:41:00,84.5,52.2,29.89,SSW,192,11.0,15.0,33,0.00,,,0.00,Wunderground v.1.15,2013-06-12 21:41:00,
2013-06-12 14:46:00,84.5,52.2,29.89,SSW,198,7.0,17.0,33,0.00,,,0.00,Wunderground v.1.15,2013-06-12 21:46:00,
2013-06-12 14:51:00,84.8,52.5,29.89,SSW,204,10.0,16.0,33,0.00,,,0.00,Wunderground v.1.15,2013-06-12 21:51:00,
2013-06-12 14:56:00,84.9,51.7,29.89,SW,236,8.0,17.0,32,0.00,,,0.00,Wunderground v.1.15,2013-06-12 21:56:00,
2013-06-12 15:01:00,84.6,51.5,29.88,South,174,6.0,10.0,32,0.00,,,0.00,Wunderground v.1.15,2013-06-12 22:01:00,
2013-06-12 15:06:00,85.2,52.0,29.88,SSW,211,6.0,16.0,32,0.00,,,0.00,Wunderground v.1.15,2013-06-12 22:06:00,
2013-06-12 15:11:00,85.2,52.0,29.88,WSW,247,6.0,15.0,32,0.00,,,0.00,Wunderground v.1.15,2013-06-12 22:11:00,
2013-06-12 15:16:00,84.8,50.8,29.88,SW,223,6.0,20.0,31,0.00,,,0.00,Wunderground v.1.15,2013-06-12 22:16:00,
2013-06-12 15:21:00,84.8,51.7,29.88,SW,215,6.0,17.0,32,0.00,,,0.00,Wunderground v.1.15,2013-06-12 22:21:00,
2013-06-12 15:26:00,84.7,51.6,29.88,SSW,208,5.0,17.0,32,0.00,,,0.00,Wunderground v.1.15,2013-06-12 22:26:00,
2013-06-12 15:31:00,84.8,50.8,29.88,SW,223,7.0,11.0,31,0.00,,,0.00,Wunderground v.1.15,2013-06-12 22:31:00,
2013-06-12 15:36:00,84.7,50.7,29.88,SW,228,9.0,14.0,31,0.00,,,0.00,Wunderground v.1.15,2013-06-12 22:36:00,
2013-06-12 15:41:00,84.7,50.7,29.88,SSW,202,5.0,14.0,31,0.00,,,0.00,Wunderground v.1.15,2013-06-12 22:41:00,
2013-06-12 15:45:00,84.6,50.6,29.88,SW,225,12.0,16.0,31,0.00,,,0.00,Wunderground v.1.15,2013-06-12 22:45:00,
2013-06-12 15:50:00,84.4,50.5,29.88,SW,232,7.0,15.0,31,0.00,,,0.00,Wunderground v.1.15,2013-06-12 22:50:00,
2013-06-12 15:56:00,84.5,51.4,29.88,SSW,208,5.0,17.0,32,0.00,,,0.00,Wunderground v.1.15,2013-06-12 22:56:00,
2013-06-12 16:01:00,84.6,50.6,29.88,SSW,203,6.0,14.0,31,0.00,,,0.00,Wunderground v.1.15,2013-06-12 23:01:00,
2013-06-12 16:06:00,84.8,50.8,29.88,SSW,205,9.0,14.0,31,0.00,,,0.00,Wunderground v.1.15,2013-06-12 23:06:00,
2013-06-12 16:11:00,84.6,50.6,29.87,SW,227,11.0,16.0,31,0.00,,,0.00,Wunderground v.1.15,2013-06-12 23:11:00,
2013-06-12 16:15:00,84.5,51.4,29.87,SW,224,8.0,20.0,32,0.00,,,0.00,Wunderground v.1.15,2013-06-12 23:15:00,
2013-06-12 16:20:00,84.7,50.7,29.87,SSW,213,9.0,16.0,31,0.00,,,0.00,Wunderground v.1.15,2013-06-12 23:20:00,
2013-06-12 16:25:00,84.4,49.6,29.88,SSW,211,10.0,20.0,30,0.00,,,0.00,Wunderground v.1.15,2013-06-12 23:25:00,
2013-06-12 16:30:00,84.1,50.2,29.87,WSW,242,11.0,18.0,31,0.00,,,0.00,Wunderground v.1.15,2013-06-12 23:30:00,
2013-06-12 16:35:00,84.0,51.0,29.87,WSW,250,12.0,18.0,32,0.00,,,0.00,Wunderground v.1.15,2013-06-12 23:35:00,
2013-06-12 16:40:00,84.1,50.2,29.88,WSW,237,7.0,13.0,31,0.00,,,0.00,Wunderground v.1.15,2013-06-12 23:40:00,
2013-06-12 16:45:00,84.7,50.7,29.87,SSW,208,3.0,13.0,31,0.00,,,0.00,Wunderground v.1.15,2013-06-12 23:45:00,
2013-06-12 16:50:00,85.1,50.2,29.87,SW,223,6.0,9.0,30,0.00,,,0.00,Wunderground v.1.15,2013-06-12 23:50:00,
2013-06-12 16:55:00,85.0,51.0,29.88,SW,228,13.0,16.0,31,0.00,,,0.00,Wunderground v.1.15,2013-06-12 23:55:00,
2013-06-12 17:00:00,84.7,49.8,29.88,SW,234,18.0,18.0,30,0.00,,,0.00,Wunderground v.1.15,2013-06-13 00:00:00,
2013-06-12 17:05:00,84.2,49.4,29.87,West,259,8.0,18.0,30,0.00,,,0.00,Wunderground v.1.15,2013-06-13 00:05:00,
2013-06-12 17:10:00,84.0,49.2,29.87,SW,225,8.0,14.0,30,0.00,,,0.00,Wunderground v.1.15,2013-06-13 00:10:00,
2013-06-12 17:15:00,84.2,49.4,29.87,SW,225,13.0,20.0,30,0.00,,,0.00,Wunderground v.1.15,2013-06-13 00:15:00,
2013-06-12 17:20:00,83.9,49.1,29.87,SSW,196,10.0,15.0,30,0.00,,,0.00,Wunderground v.1.15,2013-06-13 00:20:00,
2013-06-12 17:25:00,83.6,49.8,29.87,WSW,240,8.0,23.0,31,0.00,,,0.00,Wunderground v.1.15,2013-06-13 00:25:00,
2013-06-12 17:30:00,83.6,48.9,29.87,SW,231,7.0,13.0,30,0.00,,,0.00,Wunderground v.1.15,2013-06-13 00:30:00,
2013-06-12 17:35:00,83.5,48.8,29.87,SW,222,5.0,19.0,30,0.00,,,0.00,Wunderground v.1.15,2013-06-13 00:35:00,
2013-06-12 17:40:00,83.1,48.5,29.86,SW,221,8.0,16.0,30,0.00,,,0.00,Wunderground v.1.15,2013-06-13 00:40:00,
2013-06-12 17:45:00,83.1,49.3,29.86,SSW,210,7.0,17.0,31,0.00,,,0.00,Wunderground v.1.15,2013-06-13 00:45:00,
2013-06-12 17:50:00,82.7,49.0,29.86,SSW,194,7.0,12.0,31,0.00,,,0.00,Wunderground v.1.15,2013-06-13 00:50:00,
2013-06-12 17:55:00,82.1,48.5,29.87,SW,215,13.0,21.0,31,0.00,,,0.00,Wunderground v.1.15,2013-06-13 00:55:00,
2013-06-12 18:00:00,81.8,49.1,29.87,SW,226,12.0,12.0,32,0.00,,,0.00,Wunderground v.1.15,2013-06-13 01:00:00,
2013-06-12 18:05:00,81.4,49.5,29.87,WSW,252,10.0,17.0,33,0.00,,,0.00,Wunderground v.1.15,2013-06-13 01:05:00,
2013-06-12 18:10:00,81.1,50.1,29.87,SW,219,3.0,9.0,34,0.00,,,0.00,Wunderground v.1.15,2013-06-13 01:10:00,
2013-06-12 18:15:00,81.0,49.2,29.87,SSW,208,7.0,13.0,33,0.00,,,0.00,Wunderground v.1.15,2013-06-13 01:15:00,
2013-06-12 18:20:00,80.6,49.6,29.87,WSW,252,6.0,15.0,34,0.00,,,0.00,Wunderground v.1.15,2013-06-13 01:20:00,
2013-06-12 18:25:00,80.0,49.1,29.87,SSW,196,6.0,16.0,34,0.00,,,0.00,Wunderground v.1.15,2013-06-13 01:25:00,
2013-06-12 18:30:00,79.6,49.5,29.87,SSW,198,3.0,12.0,35,0.00,,,0.00,Wunderground v.1.15,2013-06-13 01:30:00,
2013-06-12 18:35:00,79.5,50.2,29.87,South,175,7.0,12.0,36,0.00,,,0.00,Wunderground v.1.15,2013-06-13 01:35:00,
2013-06-12 18:40:00,79.6,50.3,29.87,SW,236,3.0,7.0,36,0.00,,,0.00,Wunderground v.1.15,2013-06-13 01:40:00,
2013-06-12 18:45:00,79.4,50.1,29.87,SSE,158,2.0,15.0,36,0.00,,,0.00,Wunderground v.1.15,2013-06-13 01:45:00,
2013-06-12 18:50:00,79.2,49.9,29.87,WSW,238,17.0,17.0,36,0.00,,,0.00,Wunderground v.1.15,2013-06-13 01:50:00,
2013-06-12 18:55:00,78.7,50.2,29.87,South,182,10.0,17.0,37,0.00,,,0.00,Wunderground v.1.15,2013-06-13 01:55:00,
2013-06-12 19:00:00,78.3,49.9,29.87,South,184,5.0,12.0,37,0.00,,,0.00,Wunderground v.1.15,2013-06-13 02:00:00,
2013-06-12 19:05:00,77.9,49.5,29.88,South,191,7.0,13.0,37,0.00,,,0.00,Wunderground v.1.15,2013-06-13 02:05:00,
2013-06-12 19:10:00,77.5,49.2,29.88,South,179,10.0,10.0,37,0.00,,,0.00,Wunderground v.1.15,2013-06-13 02:10:00,
2013-06-12 19:15:00,77.0,49.4,29.88,SSE,168,6.0,14.0,38,0.00,,,0.00,Wunderground v.1.15,2013-06-13 02:15:00,
2013-06-12 19:20:00,76.6,49.1,29.88,SSW,197,7.0,15.0,38,0.00,,,0.00,Wunderground v.1.15,2013-06-13 02:20:00,
2013-06-12 19:25:00,76.3,48.8,29.88,SSE,163,7.0,15.0,38,0.00,,,0.00,Wunderground v.1.15,2013-06-13 02:25:00,
2013-06-12 19:30:00,76.0,49.2,29.88,SW,221,3.0,8.0,39,0.00,,,0.00,Wunderground v.1.15,2013-06-13 02:30:00,
2013-06-12 19:35:00,75.7,49.7,29.87,South,178,6.0,14.0,40,0.00,,,0.00,Wunderground v.1.15,2013-06-13 02:35:00,
2013-06-12 19:40:00,75.3,49.3,29.87,SSW,206,7.0,9.0,40,0.00,,,0.00,Wunderground v.1.15,2013-06-13 02:40:00,
2013-06-12 19:45:00,75.0,48.4,29.88,South,189,8.0,14.0,39,0.00,,,0.00,Wunderground v.1.15,2013-06-13 02:45:00,
2013-06-12 19:50:00,74.6,48.7,29.87,South,177,11.0,12.0,40,0.00,,,0.00,Wunderground v.1.15,2013-06-13 02:50:00,
2013-06-12 19:55:00,74.3,48.4,29.88,South,170,4.0,13.0,40,0.00,,,0.00,Wunderground v.1.15,2013-06-13 02:55:00,
2013-06-12 20:00:00,74.1,48.2,29.88,SSW,211,6.0,7.0,40,0.00,,,0.00,Wunderground v.1.15,2013-06-13 03:00:00,
2013-06-12 20:05:00,74.1,47.6,29.88,SSW,199,4.0,11.0,39,0.00,,,0.00,Wunderground v.1.15,2013-06-13 03:05:00,
2013-06-12 20:10:00,74.1,46.9,29.88,SSW,200,6.0,9.0,38,0.00,,,0.00,Wunderground v.1.15,2013-06-13 03:10:00,
2013-06-12 20:15:00,74.0,46.8,29.88,SSW,194,2.0,10.0,38,0.00,,,0.00,Wunderground v.1.15,2013-06-13 03:15:00,
2013-06-12 20:20:00,73.7,47.2,29.88,SSW,192,5.0,7.0,39,0.00,,,0.00,Wunderground v.1.15,2013-06-13 03:20:00,
2013-06-12 20:25:00,73.0,46.6,29.88,SSW,200,7.0,10.0,39,0.00,,,0.00,Wunderground v.1.15,2013-06-13 03:25:00,
2013-06-12 20:30:00,72.1,47.1,29.88,SSW,209,6.0,10.0,41,0.00,,,0.00,Wunderground v.1.15,2013-06-13 03:30:00,
2013-06-12 20:35:00,71.4,46.5,29.88,South,179,5.0,11.0,41,0.00,,,0.00,Wunderground v.1.15,2013-06-13 03:35:00,
2013-06-12 20:40:00,70.9,46.7,29.88,SSW,203,7.0,10.0,42,0.00,,,0.00,Wunderground v.1.15,2013-06-13 03:40:00,
2013-06-12 20:45:00,70.4,46.2,29.88,WSW,250,8.0,13.0,42,0.00,,,0.00,Wunderground v.1.15,2013-06-13 03:45:00,
2013-06-12 20:50:00,70.0,46.5,29.88,SSW,198,5.0,9.0,43,0.00,,,0.00,Wunderground v.1.15,2013-06-13 03:50:00,
2013-06-12 20:55:00,69.6,46.1,29.89,South,182,9.0,10.0,43,0.00,,,0.00,Wunderground v.1.15,2013-06-13 03:55:00,
2013-06-12 21:00:00,69.3,46.4,29.89,SSW,213,2.0,7.0,44,0.00,,,0.00,Wunderground v.1.15,2013-06-13 04:00:00,
2013-06-12 21:01:00,69.2,46.4,29.89,South,183,7.0,7.0,44,0.00,,,0.00,Wunderground v.1.15,2013-06-13 04:01:00,
2013-06-12 21:06:00,69.0,46.2,29.90,SSW,211,5.0,10.0,44,0.00,,,0.00,Wunderground v.1.15,2013-06-13 04:06:00,
2013-06-12 21:11:00,68.7,45.9,29.90,SSW,209,6.0,12.0,44,0.00,,,0.00,Wunderground v.1.15,2013-06-13 04:11:00,
2013-06-12 21:16:00,68.3,46.1,29.89,WSW,240,13.0,14.0,45,0.00,,,0.00,Wunderground v.1.15,2013-06-13 04:16:00,
2013-06-12 21:21:00,67.9,45.8,29.89,SSW,209,12.0,16.0,45,0.00,,,0.00,Wunderground v.1.15,2013-06-13 04:21:00,
2013-06-12 21:26:00,67.5,46.0,29.89,SSW,197,8.0,17.0,46,0.00,,,0.00,Wunderground v.1.15,2013-06-13 04:26:00,
2013-06-12 21:31:00,67.1,46.2,29.89,SSW,202,13.0,13.0,47,0.00,,,0.00,Wunderground v.1.15,2013-06-13 04:31:00,
2013-06-12 21:36:00,66.7,46.4,29.90,SW,232,10.0,13.0,48,0.00,,,0.00,Wunderground v.1.15,2013-06-13 04:36:00,
2013-06-12 21:41:00,66.5,46.2,29.90,SW,215,9.0,13.0,48,0.00,,,0.00,Wunderground v.1.15,2013-06-13 04:41:00,
2013-06-12 21:46:00,66.5,46.2,29.89,WSW,239,5.0,16.0,48,0.00,,,0.00,Wunderground v.1.15,2013-06-13 04:46:00,
2013-06-12 21:51:00,66.4,45.5,29.89,SSW,198,7.0,13.0,47,0.00,,,0.00,Wunderground v.1.15,2013-06-13 04:51:00,
2013-06-12 21:56:00,66.5,46.2,29.90,SW,232,4.0,14.0,48,0.00,,,0.00,Wunderground v.1.15,2013-06-13 04:56:00,
2013-06-12 22:01:00,66.3,46.0,29.90,SW,234,7.0,9.0,48,0.00,,,0.00,Wunderground v.1.15,2013-06-13 05:01:00,
2013-06-12 22:06:00,66.0,46.3,29.90,SSW,192,8.0,9.0,49,0.00,,,0.00,Wunderground v.1.15,2013-06-13 05:06:00,
2013-06-12 22:11:00,65.7,46.0,29.91,South,181,5.0,8.0,49,0.00,,,0.00,Wunderground v.1.15,2013-06-13 05:11:00,
2013-06-12 22:16:00,65.3,46.2,29.91,South,177,6.0,9.0,50,0.00,,,0.00,Wunderground v.1.15,2013-06-13 05:16:00,
2013-06-12 22:21:00,64.7,46.1,29.91,SSW,201,3.0,10.0,51,0.00,,,0.00,Wunderground v.1.15,2013-06-13 05:21:00,
2013-06-12 22:26:00,64.2,46.7,29.91,SSW,192,7.0,12.0,53,0.00,,,0.00,Wunderground v.1.15,2013-06-13 05:26:00,
2013-06-12 22:31:00,63.4,46.5,29.91,South,189,6.0,13.0,54,0.00,,,0.00,Wunderground v.1.15,2013-06-13 05:31:00,
2013-06-12 22:36:00,62.6,46.7,29.91,SSW,196,12.0,13.0,56,0.00,,,0.00,Wunderground v.1.15,2013-06-13 05:36:00,
2013-06-12 22:41:00,62.0,46.6,29.91,SSE,167,8.0,11.0,57,0.00,,,0.00,Wunderground v.1.15,2013-06-13 05:41:00,
2013-06-12 22:46:00,61.6,46.2,29.91,SSW,209,6.0,15.0,57,0.00,,,0.00,Wunderground v.1.15,2013-06-13 05:46:00,
2013-06-12 22:51:00,61.4,46.5,29.91,SSW,211,6.0,14.0,58,0.00,,,0.00,Wunderground v.1.15,2013-06-13 05:51:00,
2013-06-12 22:56:00,61.1,46.7,29.91,South,185,9.0,14.0,59,0.00,,,0.00,Wunderground v.1.15,2013-06-13 05:56:00,
2013-06-12 23:00:00,60.8,46.4,29.91,SSW,207,6.0,10.0,59,0.00,,,0.00,Wunderground v.1.15,2013-06-13 06:00:00,
2013-06-12 23:06:00,60.5,46.5,29.91,SSW,198,5.0,13.0,60,0.00,,,0.00,Wunderground v.1.15,2013-06-13 06:06:00,
2013-06-12 23:11:00,60.3,46.4,29.90,SSW,213,7.0,10.0,60,0.00,,,0.00,Wunderground v.1.15,2013-06-13 06:11:00,
2013-06-12 23:16:00,60.2,46.3,29.91,South,184,6.0,12.0,60,0.00,,,0.00,Wunderground v.1.15,2013-06-13 06:16:00,
2013-06-12 23:20:00,60.1,46.2,29.90,South,173,5.0,9.0,60,0.00,,,0.00,Wunderground v.1.15,2013-06-13 06:20:00,
2013-06-12 23:26:00,60.2,45.8,29.90,South,183,10.0,10.0,59,0.00,,,0.00,Wunderground v.1.15,2013-06-13 06:26:00,
2013-06-12 23:31:00,60.3,45.9,29.90,South,181,4.0,9.0,59,0.00,,,0.00,Wunderground v.1.15,2013-06-13 06:31:00,
2013-06-12 23:36:00,60.5,45.6,29.91,South,174,3.0,13.0,58,0.00,,,0.00,Wunderground v.1.15,2013-06-13 06:36:00,
2013-06-12 23:40:00,60.6,45.7,29.90,SW,233,8.0,14.0,58,0.00,,,0.00,Wunderground v.1.15,2013-06-13 06:40:00,
2013-06-12 23:45:00,60.5,46.1,29.90,SSW,205,4.0,14.0,59,0.00,,,0.00,Wunderground v.1.15,2013-06-13 06:45:00,
2013-06-12 23:50:00,60.4,45.5,29.91,South,180,4.0,7.0,58,0.00,,,0.00,Wunderground v.1.15,2013-06-13 06:50:00,
2013-06-12 23:55:00,60.5,45.6,29.91,SSW,198,2.0,10.0,58,0.00,,,0.00,Wunderground v.1.15,2013-06-13 06:55:00,